CZ-4B DEB

Last updated on Oct. 28, 2020, 12:02 a.m. UTC

1 46484U 20067G   20301.16595868  .00000274  00000-0  44008-4 0  9998
2 46484  97.8782  15.8399 0050594 316.7578  42.9666 14.78576029  4325

Satellite is not in orbit.